#timestamp,LO_Frequency,Hit,StdDev 
1455660015.3,286046991.7,N
1455660035.1,286046989.6,N
1455660055.9,286046986.4,N
1455660075.7,286046984.8,Y
1455660095.5,286046992.1,P
1455660115.4,286046990.9,P
1455660135.2,286046988.1,P
1455660155.0,286046986.7,Y
1455660155.9,286046986.7,P
1455660175.8,286046996.3,N
1455660195.6,286046994.0,N
1455660215.4,286046992.0,N
1455660235.3,286046994.8,N
1455660255.1,286046993.3,N
1455660275.8,286046991.9,N
1455660295.7,286046989.8,Y
1455660315.5,286046992.8,P
1455660335.3,286046988.4,P
1455660355.2,286046982.6,P
1455660375.9,286046979.1,Y
1455660395.7,286046989.0,P
1455660415.6,286046988.9,P
1455660435.4,286046989.8,P
1455660455.2,286046986.9,Y
1455660475.1,286046999.5,P
1455660476.0,286046999.5,N
1455660495.8,286046999.2,N
1455660515.6,286046993.5,N
1455660535.5,286046989.5,N
1455660555.3,286046990.4,N
1455660575.1,286046988.5,N
1455660595.9,286046986.5,N
1455660615.7,286046984.7,Y
1455660635.5,286046992.4,P
1455660655.4,286046992.3,P
1455660675.2,286046990.4,P
1455660695.0,286046991.4,Y
1455660695.9,286046991.4,P
1455660715.8,286046998.4,P
1455660735.6,286047000.9,N
1455660755.4,286046999.5,N
1455660775.3,286046994.0,N
1455660795.1,286046994.4,N
1455660796.0,286046994.4,N
1455660815.8,286046995.9,N
1455660835.7,286046993.9,N
1455660855.5,286046996.2,N
1455660875.3,286046994.9,N
1455660895.2,286046993.3,N
1455660915.9,286046995.3,N
1455660935.7,286046993.8,N
1455660955.6,286046987.0,Y
1455660975.4,286046992.0,P
1455660995.2,286046995.9,N
1455661015.0,286046998.0,N
1455661016.0,286046998.0,N
1455661035.8,286046995.3,N
1455661055.6,286046993.3,Y
1455661075.5,286046998.5,P
1455661095.3,286046998.4,N
1455661115.1,286046998.7,N
1455661135.8,286046998.9,N
1455661155.7,286047000.3,N
1455661175.5,286047000.4,N
1455661195.3,286046996.7,N
1455661215.2,286047000.2,N
1455661235.9,286046996.5,N
1455661255.7,286046999.6,N
1455661275.6,286046995.2,Y
1455661295.4,286046995.4,P
1455661315.2,286046997.0,N
1455661335.1,286046995.7,P
1455661336.0,286046995.7,Y
1455661355.8,286046998.5,P
1455661375.6,286046997.0,P
1455661395.5,286046996.7,P
1455661415.3,286046999.3,N
1455661435.1,286047000.7,N
1455661455.9,286047002.9,N
1455661475.7,286047001.9,N
1455661495.5,286047005.8,N
1455661515.4,286047003.1,N
1455661535.2,286047001.3,N
1455661555.0,286047003.1,N
1455661555.9,286047003.1,N
1455661575.8,286047001.5,N
1455661595.6,286047001.0,N
1455661615.4,286046998.7,N
1455661635.2,286046998.5,N
1455661655.1,286047000.6,N
1455661656.0,286047000.6,N
1455661675.8,286046998.0,N
1455661695.6,286046995.8,N
1455661715.5,286046994.0,N
1455661735.3,286046996.1,N
1455661755.1,286046992.2,N
1455661775.9,286046994.0,N
1455661795.7,286046991.7,N
1455661815.5,286046993.8,N
1455661835.4,286046994.3,N
1455661855.2,286046991.2,N
1455661875.0,286046991.7,N
1455661875.9,286046991.7,N
1455661895.7,286046991.7,N
1455661915.6,286046998.4,N
1455661935.4,286046999.5,N
1455661955.2,286046993.7,N
1455661975.1,286046997.7,N
1455661976.0,286046997.7,N
1455661995.8,286046999.1,N
1455662015.6,286046997.1,N
1455662035.5,286047000.5,N
1455662055.3,286047000.4,N
1455662075.1,286047004.9,N
1455662095.9,286047014.0,Y
1455662115.7,286047015.5,P
1455662135.5,286047016.3,N
1455662155.4,286047019.0,N
1455662175.2,286047021.3,N
1455662195.0,286047024.8,N
1455662195.9,286047024.8,N
1455662215.8,286047025.7,N
1455662235.6,286047030.0,Y
1455662255.4,286047015.4,P
1455662275.3,286047014.9,P
1455662295.1,286047016.7,P
1455662296.0,286047016.7,Y
1455662315.8,286047002.7,P
1455662335.7,286047003.5,N
1455662355.5,286047005.9,N
1455662375.3,286047006.1,N
1455662395.2,286047010.7,N
1455662415.9,286047008.3,N
1455662435.7,286047008.2,N
1455662455.6,286047008.2,N
1455662475.4,286047013.6,Y
1455662495.2,286047002.2,P
1455662515.1,286047001.9,N
1455662516.0,286047001.9,N
1455662535.8,286047000.9,N
1455662555.6,286047001.1,N
1455662575.5,286046996.8,N
1455662595.3,286046998.0,N
1455662615.1,286046996.2,N
1455662635.8,286046994.0,N
1455662655.7,286046994.5,N
1455662675.5,286046994.4,N
1455662695.3,286046995.4,N
1455662715.2,286046995.4,N
1455662735.9,286046997.8,N
1455662755.7,286046997.6,N
1455662775.6,286046996.1,N
1455662795.4,286046997.1,N
1455662815.2,286046994.1,N
1455662835.1,286046988.9,Y
1455662836.0,286046988.9,P
1455662855.8,286046989.1,N
1455662875.6,286046987.0,P
1455662895.5,286046982.4,Y
1455662915.3,286046991.2,P
1455662935.1,286046990.7,P
1455662955.9,286046991.9,P
1455662975.7,286046993.5,Y
1455662995.5,286047001.8,P
1455663015.4,286047001.8,N
1455663035.2,286047000.6,N
1455663055.0,286046996.7,N
1455663055.9,286046996.7,N
1455663075.8,286047001.0,N
1455663095.6,286046998.4,N
1455663115.4,286046998.8,N
1455663135.3,286046998.0,N
1455663155.1,286047000.2,N
1455663156.0,286047000.2,N
1455663175.8,286046997.3,N
1455663195.7,286046997.9,N
1455663215.5,286046997.5,N
1455663235.3,286046994.4,N
1455663255.1,286046993.2,N
1455663275.9,286046992.8,N
1455663295.7,286046993.9,N
1455663315.5,286046992.1,N
1455663335.4,286046986.9,Y
1455663355.2,286046989.2,P
1455663375.0,286046986.5,P
1455663375.9,286046986.5,N
1455663395.8,286046982.5,Y
1455663415.6,286046989.4,P
1455663435.4,286046987.7,P
1455663455.3,286046988.3,P
1455663475.1,286046988.3,Y
1455663495.9,286046997.2,P
1455663515.7,286046995.4,N
1455663535.5,286046996.1,N
1455663555.3,286046992.8,N
1455663575.2,286046989.3,Y
1455663595.0,286046994.5,P
1455663595.9,286046994.5,P
1455660015.7,286047002.2,N
1455660035.6,286047003.7,N
1455660055.4,286047000.0,N
1455660075.2,286047001.2,N
1455660095.1,286047002.8,N
1455660096.0,286047002.8,N
1455660115.8,286047005.1,N
1455660135.7,286047007.5,Y
1455660155.5,286047003.5,P
1455660175.3,286047003.1,P
1455660195.1,286047007.6,P
1455660215.9,286047005.7,N
1455660235.7,286047003.1,N
1455660255.5,286047005.6,N
1455660275.4,286047006.2,Y
1455660295.2,286047001.5,P
1455660315.0,286047002.8,N
1455660315.9,286047002.8,N
1455660335.8,286047001.7,N
1455660355.6,286047000.3,N
1455660375.4,286047002.3,N
1455660395.3,286047003.1,N
1455660415.1,286047003.5,Y
1455660435.8,286047000.0,P
1455660455.7,286047002.0,N
1455660475.5,286047001.4,N
1455660495.3,286047002.7,N
1455660515.2,286047001.6,N
1455660535.9,286047002.4,N
1455660555.7,286047003.3,Y
1455660575.6,286047004.4,P
1455660595.4,286047001.6,N
1455660615.2,286047004.8,P
1455660635.1,286047005.7,Y
1455660636.0,286047005.7,P
1455660655.8,286047001.8,N
1455660675.6,286046999.9,N
1455660695.5,286047001.0,N
1455660715.3,286047004.0,N
1455660735.1,286047005.6,N
1455660755.9,286047003.3,N
1455660775.7,286047005.1,N
1455660795.5,286047006.0,Y
1455660815.4,286047003.1,P
1455660835.2,286047006.0,P
1455660855.0,286047002.0,N
1455660855.9,286047002.0,N
1455660875.8,286047006.3,Y
1455660895.6,286047007.5,P
1455660915.4,286047003.3,N
1455660935.3,286047003.7,N
1455660955.1,286047004.6,N
1455660956.0,286047004.6,N
1455660975.8,286047007.8,Y
1455660995.7,286047002.9,P
1455661015.5,286047001.4,N
1455661035.3,286047002.5,N
1455661055.1,286046999.8,N
1455661075.9,286047004.6,N
1455661095.7,286047005.3,Y
1455661115.6,286047003.9,P
1455661135.4,286047001.6,N
1455661155.2,286047000.7,N
1455661175.1,286046995.9,Y
1455661176.0,286046995.9,P
1455661195.8,286046992.2,N
1455661215.6,286046993.7,N
1455661235.4,286046990.2,N
1455661255.3,286046988.9,N
1455661275.1,286046994.8,N
1455661295.8,286046992.1,N
1455661315.7,286046995.1,N
1455661335.5,286046996.6,N
1455661355.3,286046994.9,N
1455661375.2,286046994.1,N
1455661395.9,286046994.1,N
1455661415.7,286046994.0,N
1455661435.6,286046992.0,N
1455661455.4,286046997.7,N
1455661475.2,286046996.2,N
1455661495.0,286046992.1,N
1455661496.0,286046992.1,N
1455661515.8,286046994.0,N
1455661535.6,286046995.8,N
1455661555.4,286046991.8,N
1455661575.3,286046990.2,Y
1455661595.1,286047001.1,P
1455661615.8,286046998.7,N
1455661635.7,286046998.1,N
1455661655.5,286047000.5,N
1455661675.3,286047000.9,N
1455661695.2,286047003.1,N
1455661715.9,286047004.8,N
1455661735.7,286047004.7,N
1455661755.6,286047007.2,N
1455661775.4,286047004.5,N
1455661795.2,286047008.2,N
1455661815.1,286047009.1,N
1455661816.0,286047009.1,N
1455661835.8,286047014.9,Y
1455661855.6,286047013.3,P
1455661875.5,286047013.3,N
1455661895.3,286047017.4,P
1455661915.1,286047017.0,Y
1455661935.9,286047003.2,P
1455661955.7,286047007.2,N
1455661975.5,286047006.9,N
1455661995.4,286047010.0,Y
1455662015.2,286047007.6,P
1455662035.0,286047000.5,N
1455662035.9,286047000.5,N
1455662055.8,286047001.8,N
1455662075.6,286046999.2,N
1455662095.4,286047001.2,N
1455662115.3,286046996.7,N
1455662135.1,286046998.0,N
1455662136.0,286046998.0,N
1455662155.8,286046994.2,N
1455662175.6,286046993.4,N
1455662195.5,286046991.9,N
1455662215.3,286046996.3,N
1455662235.1,286046996.3,N
1455662255.9,286046992.5,N
1455662275.7,286046992.8,N
1455662295.5,286046994.4,N
1455662315.4,286046993.0,N
1455662335.2,286046992.3,N
1455662355.0,286046988.7,N
1455662355.9,286046988.7,N
1455662375.8,286046989.7,N
1455662395.6,286046988.2,N
1455662415.4,286046987.3,N
1455662435.3,286046987.3,N
1455662455.1,286046987.0,N
1455662456.0,286046987.0,N
1455662475.8,286046986.9,N
1455662495.7,286046991.4,N
1455662515.5,286046984.1,N
1455662535.3,286046983.7,N
1455662555.1,286046989.1,N
1455662575.9,286046991.0,N
1455662595.7,286046987.1,N
1455662615.5,286046989.2,N
1455662635.4,286046993.2,N
1455662655.2,286046992.1,N
1455662675.0,286046992.7,N
1455662675.9,286046992.7,N
1455662695.8,286046988.6,Y
1455662715.6,286046996.8,P
1455662735.4,286046997.5,N
1455662755.3,286046997.1,N
1455662775.1,286046994.2,N
1455662795.8,286046995.9,N
1455662815.7,286046993.5,N
1455662835.5,286046994.6,N
1455662855.3,286046996.0,N
1455662875.2,286046994.6,N
1455662895.9,286046994.7,N
1455662915.7,286046999.6,N
1455662935.6,286047000.6,N
1455662955.4,286046999.5,N
1455662975.2,286046999.6,N
1455662995.0,286046995.0,N
1455662996.0,286046995.0,N
1455663015.8,286046995.6,N
1455663035.6,286046991.9,Y
1455663055.5,286046995.0,P
1455663075.3,286046997.3,P
1455663095.1,286046995.1,P
1455663115.9,286046996.6,Y
1455663135.7,286047002.5,P
1455663155.5,286047000.4,N
1455663175.3,286047001.0,N
1455663195.2,286046998.7,N
1455663215.0,286047000.7,N
1455663215.9,286047000.7,N
1455663235.7,286046999.4,N
1455663255.6,286046995.1,N
1455663275.4,286046995.0,N
1455663295.2,286046991.9,Y
1455663315.1,286046993.7,P
1455663316.0,286046993.7,N
1455663335.8,286046992.1,P
1455663355.7,286046992.0,Y
1455663375.5,286046999.2,P
1455663395.3,286046997.4,N
1455663415.1,286046995.4,N
1455663435.9,286046995.2,N
1455663455.7,286046997.8,N
1455663475.5,286046995.9,N
1455663495.4,286046995.4,Y
1455663515.2,286046998.8,P
1455663535.0,286046997.4,N
1455663535.9,286046997.4,N
1455663555.8,286046998.7,N
1455663575.6,286046996.9,Y
1455663595.4,286046999.9,P
